Regional Weather Roundup
Issued by NWS

Home | Current Version | Previous Version | Graphics & Text | Print | Product List | Glossary On
Versions: 1 2 3 4 5 6 7 8 9 10 11 12 13 14 15 16 17 18 19 20 21 22 23 24 25 26 27 28 29 30 31 32 33 34 35 36 37 38 39 40 41 42 43 44 45 46 47 48 49 50
000
ASUS45 KPSR 241900
RWRAZ

PRELIMINARY ARIZONA REGIONAL HOURLY WEATHER ROUNDUP
NATIONAL WEATHER SERVICE PHOENIX AZ
1200 PM MST THU APR 24 2014

NOTE: FAIR INDICATES FEW OR NO CLOUDS BELOW 12,000 FEET WITH NO
SIGNIFICANT WEATHER AND/OR OBSTRUCTIONS TO VISIBILITY.

AZZ001>003-036-242000-
NORTHWEST ARIZONA

CITY           SKY/WX    TMP DP  RH WIND       PRES   REMARKS
KINGMAN        SUNNY     76   6   7 SW16G22   30.02S
$$

AZZ004>008-015-016-018-242000-
NORTH CENTRAL ARIZONA

CITY           SKY/WX    TMP DP  RH WIND       PRES   REMARKS
GRAND CANYON   SUNNY     63   8  11 SE5       30.13F
WILLIAMS       SUNNY     64   1   8 SW8       30.19F
PRESCOTT       SUNNY     69  10  10 VRB5      30.07F
FLAGSTAFF      SUNNY     61   9  12 S14       30.14F
PAYSON         SUNNY     68  10  10 VRB5G15   30.12S
PAGE             N/A     66  13  12 MISG      30.07F
$$

AZZ009>014-017-242000-
NORTHEAST ARIZONA

CITY           SKY/WX    TMP DP  RH WIND       PRES   REMARKS
WINSLOW        NOT AVBL
SAINT JOHNS    SUNNY     64   8  11 N8        30.10F
WINDOW ROCK    MOSUNNY   63   9  12 SW6       30.14F
SHOW LOW       SUNNY     64  10  12 SW7       30.15F
$$

AZZ023-242000-
GREATER PHOENIX AREA

CITY           SKY/WX    TMP DP  RH WIND       PRES   REMARKS
PHOENIX        PTSUNNY   84  13   7 NE6       29.93F
BUCKEYE          N/A     81  23  12 CALM      29.95F
GLENDALE       PTSUNNY   82  19   9 NE5       29.96F
DEER VALLEY    SUNNY     81   8   6 VRB5      29.95F
SCOTTSDALE     SUNNY     82  16   8 VRB3      29.97F
MESA-FALCON    MOSUNNY   82  16   8 W6        29.95F
MESA-GATEWAY   MOSUNNY   82  18   9 CALM      29.97F
CHANDLER         N/A     82  16   8 CALM      29.95F
$$

AZZ027-028-242000-
SOUTHWEST MARICOPA COUNTY AND PINAL COUNTY

CITY           SKY/WX    TMP DP  RH WIND       PRES   REMARKS
CASA GRANDE    SUNNY     82  21  10 S5        29.96S
$$

AZZ503-504-507>509-242000-
SOUTHEAST ARIZONA

CITY           SKY/WX    TMP DP  RH WIND       PRES   REMARKS
TUCSON         MOSUNNY   84  11   6 W6        30.00F
RYAN FIELD       N/A     82  18   9 SE5       29.98F
NOGALES        SUNNY     81  19  10 SW9G21    30.03F
SIERRA VISTA   MOSUNNY   75  16  10 VRB5      30.07F
SAFFORD        SUNNY     79  10   7 S10G17    30.00F
$$

AZZ020-021-025-026-031-242000-
SOUTHWEST ARIZONA

CITY           SKY/WX    TMP DP  RH WIND       PRES   REMARKS
YUMA           NOT AVBL
$$

CAZ031-033-041-043-047-048-061-242000-
SOUTHERN CALIFORNIA

CITY           SKY/WX    TMP DP  RH WIND       PRES   REMARKS
DOWNTOWN L.A.  SUNNY     76  43  30 W3        29.97F
L.A. AIRPORT   MOSUNNY   72  47  40 W13       29.99S
SAN DIEGO      MOSUNNY   68  50  52 SW8       30.00F
BURBANK        SUNNY     75  31  19 VRB3      29.98F
ONTARIO        MOSUNNY   74  44  34 SW7       29.98F
RIVERSIDE      SUNNY     74  42  31 W7        29.97F
PALM SPRINGS   SUNNY     86  16   7 S7        29.92F
EL CENTRO NAS  MOSUNNY   86  37  17 E6        29.89F
IMPERIAL       SUNNY     86  36  16 NE7       29.89F
BLYTHE         SUNNY     85  20   9 E7        29.92F
$$

NVZ020-UTZ003-242000-
SOUTHERN NEVADA-UTAH

CITY           SKY/WX    TMP DP  RH WIND       PRES   REMARKS
LAS VEGAS      NOT AVBL
SALT LAKE CITY PTSUNNY   62  20  19 S18G28    29.99F
$$

NMZ009-TXZ055-242000-
NEW MEXICO-WEST TEXAS

CITY           SKY/WX    TMP DP  RH WIND       PRES   REMARKS
ALBUQUERQUE    PTSUNNY   63   9  12 CALM      30.13F
EL PASO        MOSUNNY   76  12   8 VRB6      30.06F
$$


........................KEY........................
SKY/WX - SKY CONDITION/WEATHER
TMP    - TEMPERATURE IN FAHRENHEIT
DP     - DEW POINT IN FAHRENHEIT
RH     - RELATIVE HUMIDITY IN PERCENT
WIND   - DIRECTION AND SPEED IN MILES PER HOUR (MPH)
VRB    - VARIABLE WIND DIRECTION
PRES   - MEAN SEA LEVEL PRESSURE IN INCHES OF MERCURY
         F - FALLING PRESSURE   R - RISING PRESSURE
         S - STEADY PRESSURE
VSB    - VISIBILITY IN MILES
HX     - HEAT INDEX IN FAHRENHEIT
WCI    - WIND CHILL INDEX IN FAHRENHEIT
TC     - TEMPERATURE IN CELSIUS WHICH IS ALSO KNOWN AS
         TEMPERATURE IN CENTIGRADE
AFB    - AIR FORCE BASE
         LUKE AFB IS LUKE AIR FORCE BASE
         DAVIS-MONTHAN IS DAVIS-MONTHAN AIR FORCE BASE
NAS    - NAVAL AIR STATION
         EL CENTRO NAS IS EL CENTRO NAVAL AIR STATION
N/A    - NOT AVAILABLE



USA.gov is the U.S. government's official web portal to all federal, state and local government web resources and services.